BAW202 KBOS-EGLL

Flight info

Callsign BAW202
Flight time N/A
Altitude 35000
Route LBSTA8 LBSTA DCT ALLEX N685B NEEKO/M084F370 DCT 54N050W 55N040W 55N030W 54N020W DCT MALOT DCT GISTI/N0482F390 DCT ENJEX DCT AVZAC DCT INFEC DCT JETZI DCT AMFUL DCT ORZEB/N0457F230 P2 SIRIC
Aircraft B77W/H-SDE1E2E3FGHIJ2J3J4J5M1RWXY/LB1D1

Departure

Time N/A
Airport Boston Logan International Airport (KBOS)

Arrival

Time 2026-04-30 13:31
Airport London Heathrow Airport (EGLL)
Time Latitude Longitude Altitude Speed Heading
2026-04-30 12:31 52.73190 -11.18919 37083 ft 457 kts 103°
2026-04-30 12:31 52.72626 -11.13695 37090 ft 459 kts 103°
2026-04-30 12:32 52.71502 -11.03366 37034 ft 460 kts 104°
2026-04-30 12:32 52.70367 -10.93005 37058 ft 458 kts 104°
2026-04-30 12:33 52.69215 -10.82593 37057 ft 458 kts 104°
2026-04-30 12:33 52.68074 -10.72354 37052 ft 456 kts 104°
2026-04-30 12:34 52.66922 -10.62109 37059 ft 454 kts 104°
2026-04-30 12:34 52.65765 -10.51901 37062 ft 453 kts 104°
2026-04-30 12:35 52.64599 -10.41703 37070 ft 454 kts 104°
2026-04-30 12:35 52.63420 -10.31479 37070 ft 455 kts 104°
2026-04-30 12:36 52.62229 -10.21226 37058 ft 457 kts 104°
2026-04-30 12:36 52.61028 -10.10965 37059 ft 457 kts 104°
2026-04-30 12:37 52.59817 -10.00698 37048 ft 457 kts 104°
2026-04-30 12:37 52.58599 -9.90448 37067 ft 457 kts 105°
2026-04-30 12:38 52.57368 -9.80183 37071 ft 459 kts 105°
2026-04-30 12:38 52.56132 -9.69952 37061 ft 459 kts 105°
2026-04-30 12:39 52.54880 -9.59662 37065 ft 459 kts 105°
2026-04-30 12:39 52.53620 -9.49384 37040 ft 459 kts 105°
2026-04-30 12:40 52.52352 -9.39126 37068 ft 458 kts 105°
2026-04-30 12:40 52.51076 -9.28878 37081 ft 458 kts 105°
2026-04-30 12:41 52.49790 -9.18628 37084 ft 459 kts 105°
2026-04-30 12:41 52.48494 -9.08378 37085 ft 458 kts 105°
2026-04-30 12:42 52.47192 -8.98148 37063 ft 458 kts 105°
2026-04-30 12:42 52.45881 -8.87924 37093 ft 458 kts 105°
2026-04-30 12:43 52.44559 -8.77697 37086 ft 459 kts 106°
2026-04-30 12:43 52.43226 -8.67461 37084 ft 459 kts 106°
2026-04-30 12:44 52.41892 -8.57290 37077 ft 461 kts 106°
2026-04-30 12:44 52.40538 -8.47028 37088 ft 461 kts 106°
2026-04-30 12:45 52.39175 -8.36778 37083 ft 461 kts 106°
2026-04-30 12:45 52.37800 -8.26513 37093 ft 462 kts 106°
2026-04-30 12:46 52.36417 -8.16255 37096 ft 462 kts 106°
2026-04-30 12:46 52.35021 -8.05980 37093 ft 463 kts 106°
2026-04-30 12:47 52.33616 -7.95706 37099 ft 463 kts 106°
2026-04-30 12:47 52.32201 -7.85432 37086 ft 463 kts 107°
2026-04-30 12:48 52.30779 -7.75181 37092 ft 462 kts 107°
2026-04-30 12:48 52.29351 -7.64955 37116 ft 462 kts 107°
2026-04-30 12:49 52.27914 -7.54737 37100 ft 462 kts 107°
2026-04-30 12:49 52.26469 -7.44527 37120 ft 462 kts 107°
2026-04-30 12:50 52.25015 -7.34321 37117 ft 462 kts 107°
2026-04-30 12:50 52.23551 -7.24116 37128 ft 462 kts 107°
2026-04-30 12:51 52.22076 -7.13908 37134 ft 463 kts 107°
2026-04-30 12:51 52.20593 -7.03703 37133 ft 463 kts 107°
2026-04-30 12:52 52.19098 -6.93490 37144 ft 463 kts 107°
2026-04-30 12:52 52.17591 -6.83266 37128 ft 465 kts 107°
2026-04-30 12:53 52.16081 -6.73071 37124 ft 466 kts 107°
2026-04-30 12:53 52.14555 -6.62840 37113 ft 463 kts 107°
2026-04-30 12:54 52.13029 -6.52674 37104 ft 461 kts 108°
2026-04-30 12:54 52.11500 -6.42560 37106 ft 460 kts 108°
2026-04-30 12:55 52.09965 -6.32472 37090 ft 459 kts 108°
2026-04-30 12:55 52.08422 -6.22387 37102 ft 460 kts 108°
2026-04-30 12:56 52.06868 -6.12285 37105 ft 461 kts 108°
2026-04-30 12:56 52.05106 -6.02278 37103 ft 459 kts 114°
2026-04-30 12:57 52.02501 -5.92851 37096 ft 458 kts 118°
2026-04-30 12:57 51.99825 -5.83540 37095 ft 458 kts 118°
2026-04-30 12:58 51.97149 -5.74148 37079 ft 459 kts 118°
2026-04-30 12:58 51.94480 -5.64754 37090 ft 459 kts 118°
2026-04-30 12:59 51.91806 -5.55368 37092 ft 459 kts 118°
2026-04-30 12:59 51.89125 -5.46004 37087 ft 458 kts 118°
2026-04-30 13:00 51.86439 -5.36659 37087 ft 458 kts 118°
2026-04-30 13:00 51.83747 -5.27332 37086 ft 458 kts 118°
2026-04-30 13:01 51.81051 -5.18024 37087 ft 457 kts 118°
2026-04-30 13:01 51.78351 -5.08733 37095 ft 457 kts 118°
2026-04-30 13:02 51.75738 -4.99372 37089 ft 458 kts 116°
2026-04-30 13:02 51.73285 -4.89892 37073 ft 458 kts 116°
2026-04-30 13:03 51.70823 -4.80430 37079 ft 457 kts 115°
2026-04-30 13:03 51.68344 -4.71054 37084 ft 458 kts 116°
2026-04-30 13:04 51.65825 -4.61606 37091 ft 459 kts 116°
2026-04-30 13:04 51.63294 -4.52152 37091 ft 460 kts 116°
2026-04-30 13:05 51.60754 -4.42696 37093 ft 460 kts 116°
2026-04-30 13:06 51.56929 -4.28521 37079 ft 461 kts 116°
2026-04-30 13:06 51.54563 -4.18949 37098 ft 463 kts 110°
2026-04-30 13:07 51.53175 -4.08820 37099 ft 466 kts 102°
2026-04-30 13:07 51.52094 -3.98560 37098 ft 466 kts 103°
2026-04-30 13:08 51.50957 -3.88354 37105 ft 466 kts 103°
2026-04-30 13:08 51.49771 -3.78137 37108 ft 465 kts 103°
2026-04-30 13:09 51.48566 -3.67942 37118 ft 465 kts 104°
2026-04-30 13:09 51.47574 -3.57701 37128 ft 466 kts 98°
2026-04-30 13:10 51.46996 -3.47352 37134 ft 466 kts 98°
2026-04-30 13:10 51.46416 -3.37006 37116 ft 465 kts 98°
2026-04-30 13:10 51.46116 -3.31854 36843 ft 464 kts 98°
2026-04-30 13:11 51.45809 -3.26697 36453 ft 465 kts 98°
2026-04-30 13:11 51.45496 -3.21529 36053 ft 467 kts 98°
2026-04-30 13:11 51.45180 -3.16347 35653 ft 468 kts 98°
2026-04-30 13:11 51.44861 -3.11157 35255 ft 468 kts 98°
2026-04-30 13:12 51.44539 -3.05954 34876 ft 468 kts 98°
2026-04-30 13:12 51.44216 -3.00765 34496 ft 468 kts 98°
2026-04-30 13:12 51.43890 -2.95565 33675 ft 471 kts 99°
2026-04-30 13:13 51.43225 -2.85086 31730 ft 473 kts 99°
2026-04-30 13:13 51.42889 -2.79848 30813 ft 472 kts 99°
2026-04-30 13:13 51.42222 -2.69492 29334 ft 462 kts 99°
2026-04-30 13:14 51.41891 -2.64412 28648 ft 456 kts 99°
2026-04-30 13:14 51.41564 -2.59456 28000 ft 450 kts 99°
2026-04-30 13:14 51.40906 -2.49535 26663 ft 440 kts 100°
2026-04-30 13:15 51.40585 -2.44758 26046 ft 435 kts 100°
2026-04-30 13:15 51.39939 -2.35236 24792 ft 425 kts 100°
2026-04-30 13:15 51.39618 -2.30557 24181 ft 421 kts 100°
2026-04-30 13:16 51.39299 -2.25926 23559 ft 417 kts 100°
2026-04-30 13:16 51.38980 -2.21336 22864 ft 413 kts 100°
2026-04-30 13:16 51.38664 -2.16791 22234 ft 408 kts 100°
2026-04-30 13:17 51.38039 -2.07871 21056 ft 399 kts 101°
2026-04-30 13:17 51.37729 -2.03477 20481 ft 395 kts 101°
2026-04-30 13:17 51.37212 -1.96260 19540 ft 390 kts 101°
2026-04-30 13:18 51.36797 -1.90511 18763 ft 387 kts 100°
2026-04-30 13:18 51.36177 -1.81984 17570 ft 384 kts 100°
2026-04-30 13:18 51.35868 -1.77753 16984 ft 382 kts 100°
2026-04-30 13:19 51.35561 -1.73555 16424 ft 379 kts 100°
2026-04-30 13:19 51.35253 -1.69376 15859 ft 377 kts 99°
2026-04-30 13:19 51.34945 -1.65222 15304 ft 375 kts 99°
2026-04-30 13:19 51.34662 -1.61091 14745 ft 374 kts 96°
2026-04-30 13:20 51.34675 -1.56933 14203 ft 374 kts 89°
2026-04-30 13:20 51.34974 -1.52801 13637 ft 374 kts 84°
2026-04-30 13:20 51.35330 -1.50107 13266 ft 374 kts 79°
2026-04-30 13:20 51.35995 -1.46108 12722 ft 371 kts 78°
2026-04-30 13:21 51.36668 -1.42139 12193 ft 368 kts 78°
2026-04-30 13:21 51.37335 -1.38199 11668 ft 366 kts 78°
2026-04-30 13:21 51.37996 -1.34283 11175 ft 363 kts 78°
2026-04-30 13:22 51.39277 -1.26612 10130 ft 343 kts 79°
2026-04-30 13:22 51.39872 -1.23031 9758 ft 322 kts 79°
2026-04-30 13:22 51.40946 -1.16517 9238 ft 282 kts 79°
2026-04-30 13:23 51.41433 -1.13549 8884 ft 270 kts 80°
2026-04-30 13:23 51.42357 -1.07849 7840 ft 261 kts 80°
2026-04-30 13:24 51.43262 -1.02266 6727 ft 259 kts 80°
2026-04-30 13:24 51.44173 -0.96613 5959 ft 263 kts 80°
2026-04-30 13:25 51.45089 -0.90941 5330 ft 261 kts 81°
2026-04-30 13:25 51.45979 -0.85436 4700 ft 244 kts 81°
2026-04-30 13:26 51.47152 -0.78142 3844 ft 211 kts 80°
2026-04-30 13:26 51.47644 -0.73567 3251 ft 200 kts 90°
2026-04-30 13:27 51.47678 -0.69425 2669 ft 174 kts 92°
2026-04-30 13:28 51.47678 -0.64273 2032 ft 144 kts 94°
2026-04-30 13:28 51.47702 -0.61208 1671 ft 134 kts 94°
2026-04-30 13:28 51.47706 -0.59718 1498 ft 134 kts 93°
2026-04-30 13:29 51.47724 -0.56633 1112 ft 140 kts 91°
2026-04-30 13:29 51.47731 -0.53535 764 ft 144 kts 90°
2026-04-30 13:30 51.47749 -0.48717 164 ft 141 kts 87°
2026-04-30 13:31 51.47759 -0.46068 94 ft 78 kts 89°
2026-04-30 13:31 51.47696 -0.45174 95 ft 12 kts 174°
2026-04-30 13:32 51.47599 -0.45273 94 ft 10 kts 265°
2026-04-30 13:32 51.47596 -0.45509 94 ft 12 kts 270°
2026-04-30 13:33 51.47596 -0.45789 95 ft 13 kts 270°
2026-04-30 13:33 51.47595 -0.46100 94 ft 15 kts 269°
2026-04-30 13:34 51.47594 -0.46270 94 ft 16 kts 269°
2026-04-30 13:34 51.47590 -0.46807 91 ft 16 kts 265°
2026-04-30 13:35 51.47583 -0.46989 94 ft 16 kts 269°
2026-04-30 13:35 51.47581 -0.47353 94 ft 16 kts 269°
2026-04-30 13:36 51.47580 -0.47719 94 ft 17 kts 270°
2026-04-30 13:36 51.47575 -0.47836 94 ft 8 kts 247°
2026-04-30 13:36 51.47417 -0.47872 94 ft 16 kts 179°
2026-04-30 13:37 51.47304 -0.47872 93 ft 16 kts 180°
2026-04-30 13:37 51.47138 -0.47860 94 ft 6 kts 146°
2026-04-30 13:38 51.47124 -0.47744 94 ft 3 kts 90°
2026-04-30 13:38 51.47124 -0.47725 94 ft 1 kts 90°
2026-04-30 13:38 51.47124 -0.47723 94 ft 0 kts 90°